Time,TemperatureF,DewpointF,PressureIn,WindDirection,WindDirectionDegrees,WindSpeedMPH,WindSpeedGustMPH,Humidity,HourlyPrecipIn,Conditions,Clouds,dailyrainin,SoftwareType,DateUTC
2013-08-12 00:05:00,63.0,54.6,29.79,WNW,296,5.0,-999.0,74,0.00,,,0.00,Wunderground v.1.15,2013-08-12 04:05:00,
2013-08-12 00:10:00,62.7,54.7,29.79,WNW,296,4.0,-999.0,75,0.00,,,0.00,Wunderground v.1.15,2013-08-12 04:10:00,
2013-08-12 00:15:00,62.6,54.9,29.79,WNW,296,4.0,-999.0,76,0.00,,,0.00,Wunderground v.1.15,2013-08-12 04:15:00,
2013-08-12 00:20:00,62.6,54.6,29.79,WNW,296,5.0,-999.0,75,0.00,,,0.00,Wunderground v.1.15,2013-08-12 04:20:00,
2013-08-12 00:25:00,62.7,54.7,29.79,WNW,296,5.0,-999.0,75,0.00,,,0.00,Wunderground v.1.15,2013-08-12 04:25:00,
2013-08-12 00:30:00,62.6,54.6,29.80,WNW,296,5.0,-999.0,75,0.00,,,0.00,Wunderground v.1.15,2013-08-12 04:30:00,
2013-08-12 00:35:00,62.4,54.7,29.79,WNW,296,5.0,-999.0,76,0.00,,,0.00,Wunderground v.1.15,2013-08-12 04:35:00,
2013-08-12 00:40:00,62.2,54.9,29.79,WNW,296,4.0,-999.0,77,0.00,,,0.00,Wunderground v.1.15,2013-08-12 04:40:00,
2013-08-12 00:45:00,61.9,54.6,29.79,WNW,296,5.0,-999.0,77,0.00,,,0.00,Wunderground v.1.15,2013-08-12 04:45:00,
2013-08-12 00:50:00,61.7,54.8,29.79,WNW,296,5.0,-999.0,78,0.00,,,0.00,Wunderground v.1.15,2013-08-12 04:50:00,
2013-08-12 00:55:00,61.7,54.8,29.79,WNW,296,5.0,-999.0,78,0.00,,,0.00,Wunderground v.1.15,2013-08-12 04:55:00,
2013-08-12 01:00:00,61.7,54.8,29.79,WNW,296,5.0,-999.0,78,0.00,,,0.00,Wunderground v.1.15,2013-08-12 05:00:00,
2013-08-12 01:10:00,61.6,54.3,29.79,WNW,296,4.0,-999.0,77,0.00,,,0.00,Wunderground v.1.15,2013-08-12 05:10:00,
2013-08-12 01:15:00,61.7,54.4,29.79,WNW,296,4.0,-999.0,77,0.00,,,0.00,Wunderground v.1.15,2013-08-12 05:15:00,
2013-08-12 01:20:00,61.8,54.5,29.79,WNW,296,4.0,-999.0,77,0.00,,,0.00,Wunderground v.1.15,2013-08-12 05:20:00,
2013-08-12 01:25:00,61.8,54.5,29.79,WNW,296,4.0,-999.0,77,0.00,,,0.00,Wunderground v.1.15,2013-08-12 05:25:00,
2013-08-12 01:30:00,61.7,54.4,29.79,WNW,296,4.0,-999.0,77,0.00,,,0.00,Wunderground v.1.15,2013-08-12 05:30:00,
2013-08-12 01:35:00,61.7,54.8,29.79,WNW,296,4.0,-999.0,78,0.00,,,0.00,Wunderground v.1.15,2013-08-12 05:35:00,
2013-08-12 01:45:00,61.6,54.7,29.78,WNW,296,4.0,-999.0,78,0.00,,,0.00,Wunderground v.1.15,2013-08-12 05:45:00,
2013-08-12 01:50:00,61.7,54.4,29.78,WNW,296,4.0,-999.0,77,0.00,,,0.00,Wunderground v.1.15,2013-08-12 05:50:00,
2013-08-12 01:55:00,61.9,54.2,29.78,WNW,296,4.0,-999.0,76,0.00,,,0.00,Wunderground v.1.15,2013-08-12 05:55:00,
2013-08-12 02:00:00,62.0,54.3,29.78,WNW,296,4.0,-999.0,76,0.00,,,0.00,Wunderground v.1.15,2013-08-12 06:00:00,
2013-08-12 02:10:00,62.1,54.1,29.78,WNW,296,4.0,-999.0,75,0.00,,,0.00,Wunderground v.1.15,2013-08-12 06:10:00,
2013-08-12 02:15:00,62.3,53.9,29.78,WNW,296,4.0,-999.0,74,0.00,,,0.00,Wunderground v.1.15,2013-08-12 06:15:00,
2013-08-12 02:20:00,62.7,53.9,29.77,WNW,296,4.0,-999.0,73,0.00,,,0.00,Wunderground v.1.15,2013-08-12 06:20:00,
2013-08-12 02:25:00,63.0,53.8,29.77,WNW,296,4.0,-999.0,72,0.00,,,0.00,Wunderground v.1.15,2013-08-12 06:25:00,
2013-08-12 02:30:00,62.9,54.1,29.78,WNW,296,4.0,-999.0,73,0.00,,,0.00,Wunderground v.1.15,2013-08-12 06:30:00,
2013-08-12 02:35:00,62.8,54.0,29.78,WNW,296,4.0,-999.0,73,0.00,,,0.00,Wunderground v.1.15,2013-08-12 06:35:00,
2013-08-12 02:40:00,62.6,54.2,29.78,WNW,296,4.0,-999.0,74,0.00,,,0.00,Wunderground v.1.15,2013-08-12 06:40:00,
2013-08-12 02:50:00,62.3,54.3,29.78,WNW,296,4.0,-999.0,75,0.00,,,0.00,Wunderground v.1.15,2013-08-12 06:50:00,
2013-08-12 02:55:00,62.3,54.3,29.78,WNW,296,4.0,-999.0,75,0.00,,,0.00,Wunderground v.1.15,2013-08-12 06:55:00,
2013-08-12 03:00:00,62.1,54.8,29.77,WNW,296,5.0,-999.0,77,0.00,,,0.00,Wunderground v.1.15,2013-08-12 07:00:00,
2013-08-12 03:10:00,61.7,54.8,29.77,WNW,296,4.0,-999.0,78,0.00,,,0.00,Wunderground v.1.15,2013-08-12 07:10:00,
2013-08-12 03:20:00,62.1,54.8,29.77,WNW,296,4.0,-999.0,77,0.00,,,0.00,Wunderground v.1.15,2013-08-12 07:20:00,
2013-08-12 03:25:00,62.1,54.8,29.77,WNW,296,5.0,-999.0,77,0.00,,,0.00,Wunderground v.1.15,2013-08-12 07:25:00,
2013-08-12 03:30:00,62.0,54.7,29.77,WNW,296,5.0,-999.0,77,0.00,,,0.00,Wunderground v.1.15,2013-08-12 07:30:00,
2013-08-12 03:35:00,62.0,54.7,29.77,WNW,296,5.0,-999.0,77,0.00,,,0.00,Wunderground v.1.15,2013-08-12 07:35:00,
2013-08-12 03:40:00,62.0,55.1,29.77,WNW,296,5.0,-999.0,78,0.00,,,0.00,Wunderground v.1.15,2013-08-12 07:40:00,
2013-08-12 03:45:00,61.8,55.2,29.77,WNW,296,5.0,-999.0,79,0.00,,,0.00,Wunderground v.1.15,2013-08-12 07:45:00,
2013-08-12 03:55:00,61.7,55.1,29.77,WNW,296,4.0,-999.0,79,0.00,,,0.00,Wunderground v.1.15,2013-08-12 07:55:00,
2013-08-12 04:00:00,61.7,55.1,29.77,WNW,296,4.0,-999.0,79,0.00,,,0.00,Wunderground v.1.15,2013-08-12 08:00:00,
2013-08-12 04:10:00,61.8,55.2,29.77,WNW,296,4.0,-999.0,79,0.00,,,0.00,Wunderground v.1.15,2013-08-12 08:10:00,
2013-08-12 04:15:00,61.9,55.0,29.77,WNW,296,4.0,-999.0,78,0.00,,,0.00,Wunderground v.1.15,2013-08-12 08:15:00,
2013-08-12 04:25:00,62.3,55.0,29.77,WNW,296,5.0,-999.0,77,0.00,,,0.00,Wunderground v.1.15,2013-08-12 08:25:00,
2013-08-12 04:30:00,62.2,54.9,29.77,WNW,296,4.0,-999.0,77,0.00,,,0.00,Wunderground v.1.15,2013-08-12 08:30:00,
2013-08-12 04:35:00,62.0,55.1,29.77,WNW,296,5.0,-999.0,78,0.00,,,0.00,Wunderground v.1.15,2013-08-12 08:35:00,
2013-08-12 04:40:00,61.9,55.0,29.77,WNW,296,5.0,-999.0,78,0.00,,,0.00,Wunderground v.1.15,2013-08-12 08:40:00,
2013-08-12 04:45:00,61.8,55.2,29.76,WNW,296,4.0,-999.0,79,0.00,,,0.00,Wunderground v.1.15,2013-08-12 08:45:00,
2013-08-12 04:50:00,61.7,55.5,29.77,WNW,296,3.0,-999.0,80,0.00,,,0.00,Wunderground v.1.15,2013-08-12 08:50:00,
2013-08-12 04:55:00,61.7,55.1,29.76,WNW,296,3.0,-999.0,79,0.00,,,0.00,Wunderground v.1.15,2013-08-12 08:55:00,
2013-08-12 05:00:00,61.8,55.2,29.77,WNW,296,4.0,-999.0,79,0.00,,,0.00,Wunderground v.1.15,2013-08-12 09:00:00,
2013-08-12 05:10:00,61.6,55.4,29.76,WNW,296,4.0,-999.0,80,0.00,,,0.00,Wunderground v.1.15,2013-08-12 09:10:00,
2013-08-12 05:15:00,61.7,55.5,29.77,WNW,296,4.0,-999.0,80,0.00,,,0.00,Wunderground v.1.15,2013-08-12 09:15:00,
2013-08-12 05:20:00,61.7,55.5,29.77,WNW,296,4.0,-999.0,80,0.00,,,0.00,Wunderground v.1.15,2013-08-12 09:20:00,
2013-08-12 05:25:00,61.5,55.6,29.76,WNW,296,5.0,-999.0,81,0.00,,,0.00,Wunderground v.1.15,2013-08-12 09:25:00,
2013-08-12 05:30:00,61.3,55.8,29.77,WNW,296,4.0,-999.0,82,0.00,,,0.00,Wunderground v.1.15,2013-08-12 09:30:00,
2013-08-12 05:35:00,61.4,55.5,29.76,WNW,296,4.0,-999.0,81,0.00,,,0.00,Wunderground v.1.15,2013-08-12 09:35:00,
2013-08-12 05:40:00,61.6,55.4,29.77,WNW,296,5.0,-999.0,80,0.00,,,0.00,Wunderground v.1.15,2013-08-12 09:40:00,
2013-08-12 05:45:00,61.5,55.6,29.76,WNW,296,5.0,-999.0,81,0.00,,,0.00,Wunderground v.1.15,2013-08-12 09:45:00,
2013-08-12 05:50:00,61.4,55.5,29.76,WNW,296,5.0,-999.0,81,0.00,,,0.00,Wunderground v.1.15,2013-08-12 09:50:00,
2013-08-12 06:00:00,61.2,55.3,29.76,WNW,296,5.0,-999.0,81,0.00,,,0.00,Wunderground v.1.15,2013-08-12 10:00:00,
2013-08-12 06:10:00,60.9,55.4,29.76,WNW,296,4.0,-999.0,82,0.00,,,0.00,Wunderground v.1.15,2013-08-12 10:10:00,
2013-08-12 06:15:00,61.2,55.0,29.76,WNW,296,4.0,-999.0,80,0.00,,,0.00,Wunderground v.1.15,2013-08-12 10:15:00,
2013-08-12 06:20:00,61.5,54.9,29.76,WNW,296,5.0,-999.0,79,0.00,,,0.00,Wunderground v.1.15,2013-08-12 10:20:00,
2013-08-12 06:25:00,61.6,54.7,29.76,WNW,296,5.0,-999.0,78,0.00,,,0.00,Wunderground v.1.15,2013-08-12 10:25:00,
2013-08-12 06:35:00,61.7,54.8,29.76,WNW,296,5.0,-999.0,78,0.00,,,0.00,Wunderground v.1.15,2013-08-12 10:35:00,
2013-08-12 06:40:00,61.2,55.0,29.76,WNW,296,4.0,-999.0,80,0.00,,,0.00,Wunderground v.1.15,2013-08-12 10:40:00,
2013-08-12 06:45:00,60.8,55.3,29.76,WNW,296,2.0,-999.0,82,0.00,,,0.00,Wunderground v.1.15,2013-08-12 10:45:00,
2013-08-12 06:50:00,60.5,54.6,29.76,WNW,296,2.0,-999.0,81,0.00,,,0.00,Wunderground v.1.15,2013-08-12 10:50:00,
2013-08-12 06:55:00,60.5,54.6,29.76,WNW,296,4.0,-999.0,81,0.00,,,0.00,Wunderground v.1.15,2013-08-12 10:55:00,
2013-08-12 07:00:00,60.5,54.6,29.76,WNW,296,4.0,-999.0,81,0.00,,,0.00,Wunderground v.1.15,2013-08-12 11:00:00,
2013-08-12 07:10:00,60.7,55.2,29.77,WNW,296,5.0,-999.0,82,0.00,,,0.00,Wunderground v.1.15,2013-08-12 11:10:00,
2013-08-12 07:15:00,60.7,55.2,29.77,WNW,296,4.0,-999.0,82,0.00,,,0.00,Wunderground v.1.15,2013-08-12 11:15:00,
2013-08-12 07:20:00,60.8,55.9,29.77,WNW,296,3.0,-999.0,84,0.00,,,0.00,Wunderground v.1.15,2013-08-12 11:20:00,
2013-08-12 07:25:00,60.3,55.8,29.77,WNW,296,2.0,-999.0,85,0.00,,,0.00,Wunderground v.1.15,2013-08-12 11:25:00,
2013-08-12 07:30:00,60.3,56.4,29.77,WNW,296,2.0,-999.0,87,0.00,,,0.00,Wunderground v.1.15,2013-08-12 11:30:00,
2013-08-12 07:40:00,60.3,56.7,29.78,WNW,296,2.0,-999.0,88,0.00,,,0.00,Wunderground v.1.15,2013-08-12 11:40:00,
2013-08-12 07:45:00,60.8,57.5,29.77,WNW,296,2.0,-999.0,89,0.00,,,0.00,Wunderground v.1.15,2013-08-12 11:45:00,
2013-08-12 07:50:00,61.2,57.3,29.77,WNW,296,1.0,-999.0,87,0.00,,,0.00,Wunderground v.1.15,2013-08-12 11:50:00,
2013-08-12 07:55:00,61.8,57.2,29.77,WNW,296,2.0,-999.0,85,0.00,,,0.00,Wunderground v.1.15,2013-08-12 11:55:00,
2013-08-12 08:00:00,62.5,56.6,29.77,WNW,296,2.0,-999.0,81,0.00,,,0.00,Wunderground v.1.15,2013-08-12 12:00:00,
2013-08-12 08:10:00,63.5,56.9,29.77,WNW,296,3.0,-999.0,79,0.00,,,0.00,Wunderground v.1.15,2013-08-12 12:10:00,
2013-08-12 08:15:00,63.7,58.1,29.78,WNW,296,2.0,-999.0,82,0.00,,,0.00,Wunderground v.1.15,2013-08-12 12:15:00,
2013-08-12 08:20:00,63.8,58.5,29.77,WNW,296,3.0,-999.0,83,0.00,,,0.00,Wunderground v.1.15,2013-08-12 12:20:00,
2013-08-12 08:25:00,63.9,58.0,29.77,WNW,296,4.0,-999.0,81,0.00,,,0.00,Wunderground v.1.15,2013-08-12 12:25:00,
2013-08-12 08:30:00,64.2,57.5,29.77,WNW,296,4.0,-999.0,79,0.00,,,0.00,Wunderground v.1.15,2013-08-12 12:30:00,
2013-08-12 08:35:00,64.5,57.5,29.77,WNW,296,3.0,-999.0,78,0.00,,,0.00,Wunderground v.1.15,2013-08-12 12:35:00,
2013-08-12 08:45:00,65.1,58.8,29.77,WNW,296,3.0,-999.0,80,0.00,,,0.00,Wunderground v.1.15,2013-08-12 12:45:00,
2013-08-12 08:50:00,65.1,58.8,29.77,WNW,296,4.0,-999.0,80,0.00,,,0.00,Wunderground v.1.15,2013-08-12 12:50:00,
2013-08-12 08:55:00,65.4,59.1,29.77,WNW,296,3.0,-999.0,80,0.00,,,0.00,Wunderground v.1.15,2013-08-12 12:55:00,
2013-08-12 09:00:00,65.8,59.1,29.77,WNW,296,3.0,-999.0,79,0.00,,,0.00,Wunderground v.1.15,2013-08-12 13:00:00,
2013-08-12 09:10:00,66.5,59.1,29.77,WNW,296,3.0,-999.0,77,0.00,,,0.00,Wunderground v.1.15,2013-08-12 13:10:00,
2013-08-12 09:15:00,67.0,59.9,29.77,WNW,296,3.0,-999.0,78,0.00,,,0.00,Wunderground v.1.15,2013-08-12 13:15:00,
2013-08-12 09:20:00,67.2,59.4,29.77,WNW,296,4.0,-999.0,76,0.00,,,0.00,Wunderground v.1.15,2013-08-12 13:20:00,
2013-08-12 09:25:00,67.5,60.0,29.77,WNW,296,4.0,-999.0,77,0.00,,,0.00,Wunderground v.1.15,2013-08-12 13:25:00,
2013-08-12 09:30:00,67.4,59.9,29.77,WNW,296,4.0,-999.0,77,0.00,,,0.00,Wunderground v.1.15,2013-08-12 13:30:00,
2013-08-12 09:35:00,67.8,60.3,29.76,WNW,296,3.0,-999.0,77,0.00,,,0.00,Wunderground v.1.15,2013-08-12 13:35:00,
2013-08-12 09:40:00,68.2,60.3,29.77,WNW,296,3.0,-999.0,76,0.00,,,0.00,Wunderground v.1.15,2013-08-12 13:40:00,
2013-08-12 09:45:00,68.3,59.3,29.77,WNW,296,3.0,-999.0,73,0.00,,,0.00,Wunderground v.1.15,2013-08-12 13:45:00,
2013-08-12 09:50:00,68.5,59.9,29.76,WNW,296,3.0,-999.0,74,0.00,,,0.00,Wunderground v.1.15,2013-08-12 13:50:00,
2013-08-12 10:00:00,68.8,60.6,29.76,WNW,296,3.0,-999.0,75,0.00,,,0.00,Wunderground v.1.15,2013-08-12 14:00:00,
2013-08-12 10:10:00,69.0,60.7,29.75,WNW,296,3.0,-999.0,75,0.00,,,0.00,Wunderground v.1.15,2013-08-12 14:10:00,
2013-08-12 10:15:00,69.2,61.3,29.75,WNW,296,4.0,-999.0,76,0.00,,,0.00,Wunderground v.1.15,2013-08-12 14:15:00,
2013-08-12 10:20:00,69.5,60.8,29.75,WNW,296,3.0,-999.0,74,0.00,,,0.00,Wunderground v.1.15,2013-08-12 14:20:00,
2013-08-12 10:25:00,69.6,60.9,29.75,WNW,296,3.0,-999.0,74,0.00,,,0.00,Wunderground v.1.15,2013-08-12 14:25:00,
2013-08-12 10:30:00,69.6,60.9,29.75,WNW,282,4.0,-999.0,74,0.00,,,0.00,Wunderground v.1.15,2013-08-12 14:30:00,
2013-08-12 10:35:00,69.7,61.0,29.75,West,265,4.0,-999.0,74,0.00,,,0.00,Wunderground v.1.15,2013-08-12 14:35:00,
2013-08-12 10:40:00,70.0,60.9,29.75,WSW,257,4.0,-999.0,73,0.00,,,0.00,Wunderground v.1.15,2013-08-12 14:40:00,
2013-08-12 10:50:00,70.1,61.0,29.75,SSW,203,4.0,-999.0,73,0.00,,,0.00,Wunderground v.1.15,2013-08-12 14:50:00,
2013-08-12 10:55:00,70.2,60.7,29.75,SSW,203,3.0,-999.0,72,0.00,,,0.00,Wunderground v.1.15,2013-08-12 14:55:00,
2013-08-12 11:00:00,70.3,60.4,29.74,South,184,4.0,-999.0,71,0.00,,,0.00,Wunderground v.1.15,2013-08-12 15:00:00,
2013-08-12 11:10:00,70.2,60.4,29.74,South,183,4.0,-999.0,71,0.00,,,0.00,Wunderground v.1.15,2013-08-12 15:10:00,
2013-08-12 11:15:00,70.2,60.0,29.74,South,178,4.0,-999.0,70,0.00,,,0.00,Wunderground v.1.15,2013-08-12 15:15:00,
2013-08-12 11:25:00,70.6,60.7,29.74,South,178,4.0,-999.0,71,0.00,,,0.00,Wunderground v.1.15,2013-08-12 15:25:00,
2013-08-12 11:30:00,70.7,60.4,29.74,South,178,4.0,-999.0,70,0.00,,,0.00,Wunderground v.1.15,2013-08-12 15:30:00,
2013-08-12 11:35:00,70.6,59.9,29.74,South,178,5.0,-999.0,69,0.00,,,0.00,Wunderground v.1.15,2013-08-12 15:35:00,
2013-08-12 11:40:00,70.8,60.5,29.74,South,169,5.0,-999.0,70,0.00,,,0.00,Wunderground v.1.15,2013-08-12 15:40:00,
2013-08-12 11:45:00,71.3,61.0,29.74,SSE,157,4.0,-999.0,70,0.00,,,0.00,Wunderground v.1.15,2013-08-12 15:45:00,
2013-08-12 11:55:00,72.2,61.0,29.73,SSE,157,4.0,-999.0,68,0.00,,,0.00,Wunderground v.1.15,2013-08-12 15:55:00,
2013-08-12 12:00:00,72.1,60.5,29.73,SW,219,4.0,-999.0,67,0.00,,,0.00,Wunderground v.1.15,2013-08-12 16:00:00,
2013-08-12 12:10:00,72.6,61.0,29.72,SSW,198,2.0,-999.0,67,0.00,,,0.00,Wunderground v.1.15,2013-08-12 16:10:00,
2013-08-12 12:15:00,72.9,60.4,29.72,SSW,198,3.0,-999.0,65,0.00,,,0.00,Wunderground v.1.15,2013-08-12 16:15:00,
2013-08-12 12:20:00,72.7,59.8,29.72,SW,236,4.0,-999.0,64,0.00,,,0.00,Wunderground v.1.15,2013-08-12 16:20:00,
2013-08-12 12:30:00,73.4,62.2,29.72,SSE,157,5.0,-999.0,68,0.00,,,0.00,Wunderground v.1.15,2013-08-12 16:30:00,
2013-08-12 12:35:00,73.2,60.7,29.71,SW,230,5.0,-999.0,65,0.00,,,0.00,Wunderground v.1.15,2013-08-12 16:35:00,
2013-08-12 12:40:00,73.5,60.1,29.71,SW,230,4.0,-999.0,63,0.00,,,0.00,Wunderground v.1.15,2013-08-12 16:40:00,
2013-08-12 12:45:00,73.3,59.9,29.71,SW,230,4.0,-999.0,63,0.00,,,0.00,Wunderground v.1.15,2013-08-12 16:45:00,
2013-08-12 12:50:00,73.0,60.1,29.71,WSW,237,5.0,-999.0,64,0.00,,,0.00,Wunderground v.1.15,2013-08-12 16:50:00,
2013-08-12 13:00:00,72.6,59.7,29.71,WSW,237,3.0,-999.0,64,0.00,,,0.00,Wunderground v.1.15,2013-08-12 17:00:00,
2013-08-12 13:10:00,73.0,61.0,29.71,WSW,237,3.0,-999.0,66,0.00,,,0.00,Wunderground v.1.15,2013-08-12 17:10:00,
2013-08-12 13:15:00,73.0,61.4,29.71,SW,236,3.0,-999.0,67,0.00,,,0.00,Wunderground v.1.15,2013-08-12 17:15:00,
2013-08-12 13:20:00,72.9,60.0,29.71,SW,227,3.0,-999.0,64,0.00,,,0.00,Wunderground v.1.15,2013-08-12 17:20:00,
2013-08-12 13:25:00,73.3,59.9,29.71,SW,220,4.0,-999.0,63,0.00,,,0.00,Wunderground v.1.15,2013-08-12 17:25:00,
2013-08-12 13:35:00,73.1,60.2,29.71,SW,235,6.0,-999.0,64,0.00,,,0.00,Wunderground v.1.15,2013-08-12 17:35:00,
2013-08-12 13:40:00,73.3,60.8,29.71,SW,235,5.0,-999.0,65,0.00,,,0.00,Wunderground v.1.15,2013-08-12 17:40:00,
2013-08-12 13:45:00,73.7,60.3,29.70,SW,235,3.0,-999.0,63,0.00,,,0.00,Wunderground v.1.15,2013-08-12 17:45:00,
2013-08-12 13:50:00,73.6,59.3,29.71,WSW,238,5.0,-999.0,61,0.00,,,0.00,Wunderground v.1.15,2013-08-12 17:50:00,
2013-08-12 13:55:00,73.3,59.0,29.70,WSW,249,8.0,-999.0,61,0.00,,,0.00,Wunderground v.1.15,2013-08-12 17:55:00,
2013-08-12 14:00:00,73.5,59.7,29.70,West,259,9.0,-999.0,62,0.00,,,0.00,Wunderground v.1.15,2013-08-12 18:00:00,
2013-08-12 14:10:00,74.0,59.2,29.70,West,265,7.0,-999.0,60,0.00,,,0.00,Wunderground v.1.15,2013-08-12 18:10:00,
2013-08-12 14:15:00,74.0,60.6,29.70,WSW,250,7.0,-999.0,63,0.00,,,0.00,Wunderground v.1.15,2013-08-12 18:15:00,
2013-08-12 14:25:00,73.9,60.5,29.70,WSW,257,4.0,-999.0,63,0.00,,,0.00,Wunderground v.1.15,2013-08-12 18:25:00,
2013-08-12 14:35:00,73.5,60.1,29.70,WSW,255,5.0,-999.0,63,0.00,,,0.00,Wunderground v.1.15,2013-08-12 18:35:00,
2013-08-12 14:45:00,73.3,60.8,29.70,WSW,255,3.0,-999.0,65,0.00,,,0.00,Wunderground v.1.15,2013-08-12 18:45:00,
2013-08-12 14:55:00,72.6,61.0,29.70,WSW,255,3.0,-999.0,67,0.00,,,0.00,Wunderground v.1.15,2013-08-12 18:55:00,
2013-08-12 15:00:00,72.3,60.7,29.69,WSW,255,3.0,-999.0,67,0.00,,,0.00,Wunderground v.1.15,2013-08-12 19:00:00,
2013-08-12 15:10:00,72.3,62.0,29.69,WSW,240,1.0,-999.0,70,0.00,,,0.00,Wunderground v.1.15,2013-08-12 19:10:00,
2013-08-12 15:15:00,72.4,62.5,29.69,WSW,240,1.0,-999.0,71,0.00,,,0.00,Wunderground v.1.15,2013-08-12 19:15:00,
2013-08-12 15:25:00,72.5,62.6,29.69,WSW,240,0.0,-999.0,71,0.00,,,0.00,Wunderground v.1.15,2013-08-12 19:25:00,
2013-08-12 15:30:00,72.5,62.2,29.69,WSW,240,1.0,-999.0,70,0.00,,,0.00,Wunderground v.1.15,2013-08-12 19:30:00,
2013-08-12 15:35:00,72.5,62.2,29.69,WSW,240,1.0,-999.0,70,0.00,,,0.00,Wunderground v.1.15,2013-08-12 19:35:00,
2013-08-12 15:40:00,72.5,62.6,29.69,WSW,240,1.0,-999.0,71,0.00,,,0.00,Wunderground v.1.15,2013-08-12 19:40:00,
2013-08-12 15:45:00,72.6,61.8,29.69,WSW,240,2.0,-999.0,69,0.00,,,0.00,Wunderground v.1.15,2013-08-12 19:45:00,
2013-08-12 15:50:00,72.8,62.4,29.68,WSW,240,3.0,-999.0,70,0.00,,,0.00,Wunderground v.1.15,2013-08-12 19:50:00,
2013-08-12 15:55:00,72.8,62.0,29.68,WSW,237,4.0,-999.0,69,0.00,,,0.00,Wunderground v.1.15,2013-08-12 19:55:00,
2013-08-12 16:00:00,72.6,61.8,29.68,WSW,246,6.0,-999.0,69,0.00,,,0.00,Wunderground v.1.15,2013-08-12 20:00:00,
2013-08-12 16:10:00,72.0,61.3,29.68,WSW,246,8.0,-999.0,69,0.00,,,0.00,Wunderground v.1.15,2013-08-12 20:10:00,
2013-08-12 16:15:00,71.7,61.4,29.68,WSW,252,8.0,-999.0,70,0.00,,,0.00,Wunderground v.1.15,2013-08-12 20:15:00,
2013-08-12 16:20:00,71.6,61.7,29.67,WSW,241,8.0,-999.0,71,0.00,,,0.00,Wunderground v.1.15,2013-08-12 20:20:00,
2013-08-12 16:25:00,71.6,61.7,29.68,WSW,249,8.0,-999.0,71,0.00,,,0.00,Wunderground v.1.15,2013-08-12 20:25:00,
2013-08-12 16:30:00,71.4,61.9,29.68,WSW,250,7.0,-999.0,72,0.00,,,0.00,Wunderground v.1.15,2013-08-12 20:30:00,
2013-08-12 16:35:00,71.2,62.1,29.68,WSW,244,7.0,-999.0,73,0.00,,,0.00,Wunderground v.1.15,2013-08-12 20:35:00,
2013-08-12 16:40:00,71.0,62.3,29.68,WSW,242,7.0,-999.0,74,0.00,,,0.00,Wunderground v.1.15,2013-08-12 20:40:00,
2013-08-12 16:45:00,70.8,62.5,29.68,WSW,241,6.0,-999.0,75,0.00,,,0.00,Wunderground v.1.15,2013-08-12 20:45:00,
2013-08-12 16:50:00,70.8,62.1,29.68,SW,236,6.0,-999.0,74,0.00,,,0.00,Wunderground v.1.15,2013-08-12 20:50:00,
2013-08-12 17:00:00,70.8,62.9,29.68,SW,236,5.0,-999.0,76,0.00,,,0.00,Wunderground v.1.15,2013-08-12 21:00:00,
2013-08-12 17:10:00,70.6,62.7,29.67,WSW,237,5.0,-999.0,76,0.00,,,0.00,Wunderground v.1.15,2013-08-12 21:10:00,
2013-08-12 17:15:00,70.6,63.0,29.67,WSW,237,5.0,-999.0,77,0.00,,,0.00,Wunderground v.1.15,2013-08-12 21:15:00,
2013-08-12 17:20:00,70.7,62.8,29.67,SW,236,6.0,-999.0,76,0.00,,,0.00,Wunderground v.1.15,2013-08-12 21:20:00,
2013-08-12 17:25:00,70.7,63.1,29.67,WSW,242,7.0,-999.0,77,0.00,,,0.00,Wunderground v.1.15,2013-08-12 21:25:00,
2013-08-12 17:35:00,70.8,63.2,29.66,WSW,239,6.0,-999.0,77,0.00,,,0.00,Wunderground v.1.15,2013-08-12 21:35:00,
2013-08-12 17:40:00,70.8,63.2,29.66,WSW,240,5.0,-999.0,77,0.00,,,0.00,Wunderground v.1.15,2013-08-12 21:40:00,
2013-08-12 17:45:00,70.8,63.2,29.66,WSW,247,6.0,-999.0,77,0.00,,,0.00,Wunderground v.1.15,2013-08-12 21:45:00,
2013-08-12 17:50:00,70.8,63.2,29.65,SW,236,6.0,-999.0,77,0.00,,,0.00,Wunderground v.1.15,2013-08-12 21:50:00,
2013-08-12 18:00:00,70.8,63.2,29.65,SW,236,5.0,-999.0,77,0.00,,,0.00,Wunderground v.1.15,2013-08-12 22:00:00,
2013-08-12 18:05:00,71.1,63.9,29.65,SW,216,5.0,-999.0,78,0.00,,,0.00,Wunderground v.1.15,2013-08-12 22:05:00,
2013-08-12 18:10:00,70.9,63.0,29.65,SW,217,7.0,-999.0,76,0.00,,,0.00,Wunderground v.1.15,2013-08-12 22:10:00,
2013-08-12 18:20:00,70.4,62.5,29.66,WSW,248,7.0,-999.0,76,0.00,,,0.00,Wunderground v.1.15,2013-08-12 22:20:00,
2013-08-12 18:30:00,70.2,62.6,29.65,WSW,244,7.0,-999.0,77,0.00,,,0.00,Wunderground v.1.15,2013-08-12 22:30:00,
2013-08-12 18:35:00,70.3,62.7,29.65,WSW,247,6.0,-999.0,77,0.00,,,0.00,Wunderground v.1.15,2013-08-12 22:35:00,
2013-08-12 18:40:00,70.4,62.8,29.65,WSW,245,6.0,-999.0,77,0.00,,,0.00,Wunderground v.1.15,2013-08-12 22:40:00,
2013-08-12 18:45:00,70.4,62.5,29.65,WSW,238,6.0,-999.0,76,0.00,,,0.00,Wunderground v.1.15,2013-08-12 22:45:00,
2013-08-12 18:50:00,70.6,62.7,29.65,WSW,250,7.0,-999.0,76,0.00,,,0.00,Wunderground v.1.15,2013-08-12 22:50:00,
2013-08-12 18:55:00,70.4,62.1,29.65,WSW,243,8.0,-999.0,75,0.00,,,0.00,Wunderground v.1.15,2013-08-12 22:55:00,
2013-08-12 19:00:00,70.4,62.5,29.64,WSW,242,9.0,-999.0,76,0.00,,,0.00,Wunderground v.1.15,2013-08-12 23:00:00,
2013-08-12 19:10:00,70.3,62.0,29.64,WSW,237,8.0,-999.0,75,0.00,,,0.00,Wunderground v.1.15,2013-08-12 23:10:00,
2013-08-12 19:15:00,70.0,62.1,29.64,WSW,243,8.0,-999.0,76,0.00,,,0.00,Wunderground v.1.15,2013-08-12 23:15:00,
2013-08-12 19:20:00,70.0,62.1,29.64,WSW,242,6.0,-999.0,76,0.00,,,0.00,Wunderground v.1.15,2013-08-12 23:20:00,
2013-08-12 19:25:00,70.0,62.5,29.64,WSW,241,5.0,-999.0,77,0.00,,,0.00,Wunderground v.1.15,2013-08-12 23:25:00,
2013-08-12 19:30:00,70.0,62.5,29.64,WSW,241,5.0,-999.0,77,0.00,,,0.00,Wunderground v.1.15,2013-08-12 23:30:00,
2013-08-12 19:35:00,69.9,62.7,29.64,WSW,241,4.0,-999.0,78,0.00,,,0.00,Wunderground v.1.15,2013-08-12 23:35:00,
2013-08-12 19:45:00,69.3,62.5,29.64,WSW,241,4.0,-999.0,79,0.00,,,0.00,Wunderground v.1.15,2013-08-12 23:45:00,
2013-08-12 19:50:00,69.1,62.3,29.63,WSW,241,4.0,-999.0,79,0.00,,,0.00,Wunderground v.1.15,2013-08-12 23:50:00,
2013-08-12 19:55:00,68.8,62.0,29.63,WSW,240,5.0,-999.0,79,0.00,,,0.00,Wunderground v.1.15,2013-08-12 23:55:00,
2013-08-12 20:00:00,68.6,62.2,29.63,WSW,240,4.0,-999.0,80,0.00,,,0.00,Wunderground v.1.15,2013-08-13 00:00:00,
2013-08-12 20:10:00,68.2,62.1,29.63,WSW,240,4.0,-999.0,81,0.00,,,0.00,Wunderground v.1.15,2013-08-13 00:10:00,
2013-08-12 20:15:00,68.0,61.9,29.62,WSW,240,3.0,-999.0,81,0.00,,,0.00,Wunderground v.1.15,2013-08-13 00:15:00,
2013-08-12 20:20:00,67.8,61.8,29.62,WSW,240,3.0,-999.0,81,0.00,,,0.00,Wunderground v.1.15,2013-08-13 00:20:00,
2013-08-12 20:25:00,67.7,62.0,29.62,WSW,240,3.0,-999.0,82,0.00,,,0.00,Wunderground v.1.15,2013-08-13 00:25:00,
2013-08-12 20:30:00,67.5,61.8,29.62,WSW,240,4.0,-999.0,82,0.00,,,0.00,Wunderground v.1.15,2013-08-13 00:30:00,
2013-08-12 20:35:00,67.1,61.8,29.62,WSW,240,4.0,-999.0,83,0.00,,,0.00,Wunderground v.1.15,2013-08-13 00:35:00,
2013-08-12 20:40:00,66.8,61.8,29.62,WSW,240,4.0,-999.0,84,0.00,,,0.00,Wunderground v.1.15,2013-08-13 00:40:00,
2013-08-12 20:50:00,66.4,61.8,29.62,WSW,240,4.0,-999.0,85,0.00,,,0.00,Wunderground v.1.15,2013-08-13 00:50:00,
2013-08-12 20:55:00,66.0,61.4,29.62,WSW,240,4.0,-999.0,85,0.00,,,0.00,Wunderground v.1.15,2013-08-13 00:55:00,
2013-08-12 21:00:00,65.7,61.4,29.62,WSW,240,5.0,-999.0,86,0.00,,,0.00,Wunderground v.1.15,2013-08-13 01:00:00,
2013-08-12 21:10:00,65.4,61.4,29.62,WSW,240,4.0,-999.0,87,0.00,,,0.00,Wunderground v.1.15,2013-08-13 01:10:00,
2013-08-12 21:20:00,65.5,61.9,29.62,WSW,239,5.0,-999.0,88,0.00,,,0.00,Wunderground v.1.15,2013-08-13 01:20:00,
2013-08-12 21:25:00,65.4,61.8,29.62,WSW,238,5.0,-999.0,88,0.00,,,0.00,Wunderground v.1.15,2013-08-13 01:25:00,
2013-08-12 21:30:00,65.4,62.1,29.63,WSW,238,5.0,-999.0,89,0.00,,,0.00,Wunderground v.1.15,2013-08-13 01:30:00,
2013-08-12 21:35:00,65.3,62.0,29.63,WSW,238,5.0,-999.0,89,0.00,,,0.00,Wunderground v.1.15,2013-08-13 01:35:00,
2013-08-12 21:40:00,65.2,61.9,29.63,WSW,238,4.0,-999.0,89,0.00,,,0.00,Wunderground v.1.15,2013-08-13 01:40:00,
2013-08-12 21:45:00,65.2,61.9,29.63,SW,234,5.0,-999.0,89,0.00,,,0.00,Wunderground v.1.15,2013-08-13 01:45:00,
2013-08-12 21:55:00,65.2,62.2,29.63,SW,219,5.0,-999.0,90,0.00,,,0.00,Wunderground v.1.15,2013-08-13 01:55:00,
2013-08-12 22:00:00,65.2,61.9,29.63,SW,219,5.0,-999.0,89,0.00,,,0.00,Wunderground v.1.15,2013-08-13 02:00:00,
2013-08-12 22:10:00,65.3,62.0,29.62,SSW,212,5.0,-999.0,89,0.00,,,0.00,Wunderground v.1.15,2013-08-13 02:10:00,
2013-08-12 22:15:00,65.3,62.0,29.62,SSW,209,6.0,-999.0,89,0.00,,,0.00,Wunderground v.1.15,2013-08-13 02:15:00,
2013-08-12 22:25:00,65.2,61.9,29.62,SSW,205,5.0,-999.0,89,0.00,,,0.00,Wunderground v.1.15,2013-08-13 02:25:00,
2013-08-12 22:30:00,65.2,61.9,29.61,SSW,205,6.0,-999.0,89,0.00,,,0.00,Wunderground v.1.15,2013-08-13 02:30:00,
2013-08-12 22:35:00,65.3,62.0,29.62,SSW,205,6.0,-999.0,89,0.00,,,0.00,Wunderground v.1.15,2013-08-13 02:35:00,
2013-08-12 22:40:00,65.3,62.0,29.61,SSW,207,6.0,-999.0,89,0.00,,,0.00,Wunderground v.1.15,2013-08-13 02:40:00,
2013-08-12 22:45:00,65.3,62.0,29.61,SSW,206,6.0,-999.0,89,0.00,,,0.00,Wunderground v.1.15,2013-08-13 02:45:00,
2013-08-12 22:50:00,65.3,62.0,29.61,SSW,206,6.0,-999.0,89,0.00,,,0.00,Wunderground v.1.15,2013-08-13 02:50:00,
2013-08-12 23:00:00,65.1,61.8,29.61,SSW,205,5.0,-999.0,89,0.00,,,0.00,Wunderground v.1.15,2013-08-13 03:00:00,
2013-08-12 23:10:00,64.9,61.6,29.61,SSW,207,5.0,-999.0,89,0.00,,,0.00,Wunderground v.1.15,2013-08-13 03:10:00,
2013-08-12 23:15:00,64.8,61.8,29.61,SSW,207,4.0,-999.0,90,0.00,,,0.00,Wunderground v.1.15,2013-08-13 03:15:00,
2013-08-12 23:20:00,64.6,61.6,29.60,SSW,207,5.0,-999.0,90,0.00,,,0.00,Wunderground v.1.15,2013-08-13 03:20:00,
2013-08-12 23:30:00,64.4,61.4,29.60,SSW,207,4.0,-999.0,90,0.00,,,0.00,Wunderground v.1.15,2013-08-13 03:30:00,
2013-08-12 23:35:00,64.4,61.4,29.60,SSW,207,4.0,-999.0,90,0.00,,,0.00,Wunderground v.1.15,2013-08-13 03:35:00,
2013-08-12 23:40:00,64.4,61.4,29.60,SSW,207,4.0,-999.0,90,0.00,,,0.00,Wunderground v.1.15,2013-08-13 03:40:00,
2013-08-12 23:45:00,64.3,61.3,29.60,SSW,207,4.0,-999.0,90,0.00,,,0.00,Wunderground v.1.15,2013-08-13 03:45:00,
2013-08-12 23:55:00,64.2,61.2,29.59,SSW,207,3.0,-999.0,90,0.00,,,0.00,Wunderground v.1.15,2013-08-13 03:55:00,